| time (UTC) | temp F | wind direction | speed knots | gust knots | rain 1hr in | rain 24hr in | rain mn in | humidity % | barometer mb |
| 20260506204712 | 80 | 179 | 11.3 | 19.1 | 0.00 | 0.00 | 0.00 | 68 | 1014.2 |
| 20260506204209 | 80 | 156 | 7.8 | 18.2 | 0.00 | 0.00 | 0.00 | 68 | 1014.2 |
| 20260506203707 | 80 | 157 | 10.4 | 20.0 | 0.00 | 0.00 | 0.00 | 69 | 1014.2 |
| 20260506203204 | 80 | 159 | 13.9 | 20.0 | 0.00 | 0.00 | 0.00 | 68 | 1014.2 |
| 20260506202701 | 80 | 197 | 7.8 | 18.2 | 0.00 | 0.00 | 0.00 | 69 | 1014.2 |
| 20260506202156 | 80 | 184 | 9.6 | 18.2 | 0.00 | 0.00 | 0.00 | 68 | 1013.8 |
| 20260506201649 | 80 | 177 | 11.3 | 18.2 | 0.00 | 0.00 | 0.00 | 68 | 1014.2 |
| 20260506201145 | 80 | 200 | 13.0 | 20.0 | 0.00 | 0.00 | 0.00 | 68 | 1014.5 |
| 20260506200642 | 80 | 176 | 12.2 | 20.0 | 0.00 | 0.00 | 0.00 | 68 | 1014.5 |
| 20260506200138 | 80 | 164 | 10.4 | 18.2 | 0.00 | 0.00 | 0.00 | 68 | 1014.5 |
| 20260506195635 | 80 | 185 | 12.2 | 18.2 | 0.00 | 0.00 | 0.00 | 68 | 1014.5 |
| 20260506195131 | 80 | 158 | 12.2 | 19.1 | 0.00 | 0.00 | 0.00 | 68 | 1014.2 |
| 20260506194629 | 81 | 192 | 10.4 | 19.1 | 0.00 | 0.00 | 0.00 | 67 | 1014.5 |
| 20260506194125 | 81 | 172 | 9.6 | 18.2 | 0.00 | 0.00 | 0.00 | 67 | 1014.5 |
| 20260506193623 | 81 | 156 | 13.0 | 19.1 | 0.00 | 0.00 | 0.00 | 68 | 1014.5 |
| 20260506193120 | 80 | 208 | 9.6 | 19.1 | 0.00 | 0.00 | 0.00 | 68 | 1014.9 |
| 20260506192617 | 80 | 194 | 13.0 | 19.1 | 0.00 | 0.00 | 0.00 | 67 | 1014.5 |
| 20260506192112 | 81 | 174 | 11.3 | 17.4 | 0.00 | 0.00 | 0.00 | 67 | 1014.5 |
| 20260506191609 | 80 | 139 | 11.3 | 18.2 | 0.00 | 0.00 | 0.00 | 66 | 1014.9 |
| 20260506191105 | 81 | 177 | 10.4 | 18.2 | 0.00 | 0.00 | 0.00 | 66 | 1014.9 |
| 20260506190603 | 81 | 186 | 13.0 | 18.2 | 0.00 | 0.00 | 0.00 | 67 | 1014.9 |
| 20260506190059 | 81 | 187 | 9.6 | 17.4 | 0.00 | 0.00 | 0.00 | 67 | 1014.9 |
| 20260506185557 | 81 | 175 | 11.3 | 17.4 | 0.00 | 0.00 | 0.00 | 67 | 1015.2 |
| 20260506185053 | 81 | 174 | 10.4 | 18.2 | 0.00 | 0.00 | 0.00 | 67 | 1015.2 |
| 20260506184550 | 81 | 175 | 13.0 | 18.2 | 0.00 | 0.00 | 0.00 | 67 | 1015.2 |
| 20260506184047 | 81 | 182 | 11.3 | 18.2 | 0.00 | 0.00 | 0.00 | 66 | 1015.2 |
| 20260506183543 | 81 | 168 | 13.9 | 18.2 | 0.00 | 0.00 | 0.00 | 66 | 1015.2 |
| 20260506183035 | 81 | 184 | 13.0 | 20.0 | 0.00 | 0.00 | 0.00 | 66 | 1015.2 |
| 20260506182532 | 81 | 188 | 13.0 | 20.0 | 0.00 | 0.00 | 0.00 | 66 | 1015.2 |
| 20260506182029 | 81 | 180 | 13.0 | 20.0 | 0.00 | 0.00 | 0.00 | 65 | 1015.2 |
| 20260506181527 | 81 | 189 | 12.2 | 18.2 | 0.00 | 0.00 | 0.00 | 65 | 1015.5 |
| 20260506181024 | 82 | 156 | 12.2 | 18.2 | 0.00 | 0.00 | 0.00 | 65 | 1015.5 |
| 20260506180520 | 82 | 189 | 11.3 | 18.2 | 0.00 | 0.00 | 0.00 | 64 | 1015.2 |
| 20260506180017 | 82 | 187 | 12.2 | 14.8 | 0.00 | 0.00 | 0.00 | 63 | 1015.5 |
| 20260506175513 | 83 | 157 | 8.7 | 14.8 | 0.00 | 0.00 | 0.00 | 63 | 1015.5 |
| 20260506175010 | 83 | 159 | 8.7 | 17.4 | 0.00 | 0.00 | 0.00 | 62 | 1015.5 |
| 20260506174508 | 84 | 155 | 8.7 | 17.4 | 0.00 | 0.00 | 0.00 | 60 | 1015.9 |
| 20260506174004 | 84 | 202 | 7.0 | 12.2 | 0.00 | 0.00 | 0.00 | 61 | 1015.5 |
| 20260506173502 | 84 | 185 | 7.0 | 12.2 | 0.00 | 0.00 | 0.00 | 61 | 1015.5 |
| 20260506172959 | 84 | 152 | 4.3 | 12.2 | 0.00 | 0.00 | 0.00 | 59 | 1016.2 |
| 20260506172456 | 85 | 184 | 7.0 | 11.3 | 0.00 | 0.00 | 0.00 | 59 | 1015.9 |
| 20260506171952 | 85 | 172 | 7.0 | 9.6 | 0.00 | 0.00 | 0.00 | 54 | 1016.6 |
| 20260506171450 | 85 | 174 | 4.3 | 9.6 | 0.00 | 0.00 | 0.00 | 55 | 1016.2 |
| 20260506170947 | 84 | 163 | 1.7 | 12.2 | 0.00 | 0.00 | 0.00 | 51 | 1016.2 |
| 20260506170443 | 84 | 180 | 7.0 | 12.2 | 0.00 | 0.00 | 0.00 | 59 | 1016.2 |
| 20260506165936 | 85 | 164 | 5.2 | 13.0 | 0.00 | 0.00 | 0.00 | 57 | 1016.6 |
| 20260506165434 | 84 | 257 | 2.6 | 13.0 | 0.00 | 0.00 | 0.00 | 52 | 1016.6 |
| 20260506164929 | 84 | 179 | 9.6 | 12.2 | 0.00 | 0.00 | 0.00 | 54 | 1016.6 |
| 20260506164426 | 84 | 249 | 5.2 | 13.0 | 0.00 | 0.00 | 0.00 | 53 | 1016.6 |
| 20260506163919 | 84 | 215 | 7.0 | 13.0 | 0.00 | 0.00 | 0.00 | 53 | 1016.6 |
| 20260506163414 | 84 | 222 | 4.3 | 12.2 | 0.00 | 0.00 | 0.00 | 54 | 1016.6 |
| 20260506162909 | 84 | 215 | 7.8 | 12.2 | 0.00 | 0.00 | 0.00 | 54 | 1016.6 |
| 20260506162407 | 83 | 158 | 1.7 | 11.3 | 0.00 | 0.00 | 0.00 | 54 | 1016.9 |
| 20260506161904 | 83 | 176 | 6.1 | 11.3 | 0.00 | 0.00 | 0.00 | 55 | 1016.6 |
| 20260506161402 | 83 | 157 | 4.3 | 9.6 | 0.00 | 0.00 | 0.00 | 54 | 1016.6 |
| 20260506160859 | 82 | 330 | 0.0 | 11.3 | 0.00 | 0.00 | 0.00 | 56 | 1016.9 |
| 20260506160356 | 82 | 194 | 7.8 | 11.3 | 0.00 | 0.00 | 0.00 | 56 | 1016.6 |
| 20260506155854 | 82 | 286 | 3.5 | 8.7 | 0.00 | 0.00 | 0.00 | 55 | 1017.2 |
| 20260506155350 | 82 | 165 | 6.1 | 7.0 | 0.00 | 0.00 | 0.00 | 56 | 1016.9 |
| 20260506153508 | 81 | 165 | 1.7 | 7.0 | 0.00 | 0.00 | 0.00 | 57 | 1016.9 |
| 20260506153005 | 80 | 148 | 2.6 | 7.0 | 0.00 | 0.00 | 0.00 | 58 | 1017.2 |
| 20260506152502 | 80 | 80 | 1.7 | 9.6 | 0.00 | 0.00 | 0.00 | 59 | 1016.9 |
| 20260506152000 | 80 | 211 | 4.3 | 9.6 | 0.00 | 0.00 | 0.00 | 60 | 1017.2 |
| 20260506151458 | 80 | 174 | 4.3 | 7.8 | 0.00 | 0.00 | 0.00 | 59 | 1017.2 |
| 20260506150955 | 80 | 174 | 4.3 | 7.8 | 0.00 | 0.00 | 0.00 | 59 | 1017.2 |
| 20260506150450 | 79 | 264 | 2.6 | 8.7 | 0.00 | 0.00 | 0.00 | 59 | 1017.2 |
| 20260506145948 | 80 | 171 | 2.6 | 9.6 | 0.00 | 0.00 | 0.00 | 59 | 1017.2 |
| 20260506145444 | 80 | 189 | 7.8 | 9.6 | 0.00 | 0.00 | 0.00 | 60 | 1016.9 |
| 20260506144942 | 79 | 310 | 1.7 | 11.3 | 0.00 | 0.00 | 0.00 | 60 | 1016.6 |
| 20260506144438 | 79 | 274 | 1.7 | 11.3 | 0.00 | 0.00 | 0.00 | 61 | 1016.9 |
| 20260506143937 | 78 | 133 | 2.6 | 6.1 | 0.00 | 0.00 | 0.00 | 61 | 1016.9 |
| 20260506143433 | 78 | 119 | 0.0 | 6.1 | 0.00 | 0.00 | 0.00 | 61 | 1016.9 |
| 20260506142932 | 78 | 96 | 1.7 | 8.7 | 0.00 | 0.00 | 0.00 | 61 | 1016.6 |
| 20260506142429 | 78 | 324 | 2.6 | 8.7 | 0.00 | 0.00 | 0.00 | 62 | 1016.6 |
| 20260506141927 | 77 | 179 | 3.5 | 7.8 | 0.00 | 0.00 | 0.00 | 61 | 1016.6 |
| 20260506141425 | 77 | 255 | 2.6 | 8.7 | 0.00 | 0.00 | 0.00 | 63 | 1016.6 |
| 20260506140923 | 77 | 212 | 3.5 | 8.7 | 0.00 | 0.00 | 0.00 | 62 | 1016.6 |
| 20260506140420 | 77 | 117 | 0.0 | 6.1 | 0.00 | 0.00 | 0.00 | 63 | 1016.9 |
| 20260506135916 | 77 | 227 | 1.7 | 7.0 | 0.00 | 0.00 | 0.00 | 64 | 1016.9 |
| 20260506135414 | 76 | 166 | 2.6 | 8.7 | 0.00 | 0.00 | 0.00 | 64 | 1016.6 |
| 20260506134910 | 76 | 284 | 0.9 | 8.7 | 0.00 | 0.00 | 0.00 | 65 | 1016.9 |
| 20260506134406 | 76 | 261 | 1.7 | 7.8 | 0.00 | 0.00 | 0.00 | 66 | 1016.6 |
| 20260506133903 | 76 | 127 | 0.9 | 7.8 | 0.00 | 0.00 | 0.00 | 67 | 1016.6 |
| 20260506133400 | 76 | 181 | 2.6 | 8.7 | 0.00 | 0.00 | 0.00 | 68 | 1016.6 |
| 20260506132856 | 75 | 287 | 4.3 | 8.7 | 0.00 | 0.00 | 0.00 | 69 | 1016.2 |
| 20260506132353 | 75 | 132 | 2.6 | 12.2 | 0.00 | 0.00 | 0.00 | 70 | 1016.2 |
| 20260506131852 | 75 | 184 | 6.1 | 12.2 | 0.00 | 0.00 | 0.00 | 71 | 1016.2 |
| 20260506131348 | 74 | 143 | 1.7 | 8.7 | 0.00 | 0.00 | 0.00 | 71 | 1016.6 |
| 20260506130845 | 75 | 267 | 1.7 | 8.7 | 0.00 | 0.00 | 0.00 | 72 | 1016.2 |
| 20260506130341 | 74 | 222 | 4.3 | 6.1 | 0.00 | 0.00 | 0.00 | 74 | 1016.2 |
| 20260506125839 | 74 | 245 | 4.3 | 13.0 | 0.00 | 0.00 | 0.00 | 75 | 1016.6 |
| 20260506125337 | 74 | 145 | 1.7 | 13.0 | 0.00 | 0.00 | 0.00 | 76 | 1016.6 |
| 20260506124835 | 73 | 202 | 2.6 | 7.0 | 0.00 | 0.00 | 0.00 | 77 | 1016.2 |
| 20260506124332 | 73 | 17 | 0.9 | 6.1 | 0.00 | 0.00 | 0.00 | 79 | 1016.6 |
| 20260506123830 | 72 | 108 | 2.6 | 5.2 | 0.00 | 0.00 | 0.00 | 82 | 1016.2 |
| 20260506123328 | 72 | 113 | 0.9 | 5.2 | 0.00 | 0.00 | 0.00 | 84 | 1016.6 |
| 20260506122825 | 72 | 125 | 2.6 | 6.1 | 0.00 | 0.00 | 0.00 | 86 | 1016.2 |
| 20260506122322 | 71 | 176 | 2.6 | 6.1 | 0.00 | 0.00 | 0.00 | 87 | 1016.2 |
| 20260506121820 | 71 | 16 | 0.9 | 7.0 | 0.00 | 0.00 | 0.00 | 88 | 1015.9 |
| 20260506121317 | 71 | 125 | 0.9 | 7.0 | 0.00 | 0.00 | 0.00 | 89 | 1016.2 |
| 20260506120814 | 70 | 162 | 1.7 | 4.3 | 0.00 | 0.00 | 0.00 | 89 | 1016.2 |
| 20260506120312 | 70 | 94 | 0.9 | 4.3 | 0.00 | 0.00 | 0.00 | 90 | 1016.6 |
| 20260506115809 | 69 | 111 | 0.9 | 5.2 | 0.00 | 0.00 | 0.00 | 91 | 1016.2 |
| 20260506115307 | 68 | 171 | 3.5 | 5.2 | 0.00 | 0.00 | 0.00 | 91 | 1016.2 |
| 20260506114804 | 68 | 112 | 0.9 | 2.6 | 0.00 | 0.00 | 0.00 | 91 | 1016.2 |
| 20260506114302 | 67 | 109 | 0.0 | 1.7 | 0.00 | 0.00 | 0.00 | 92 | 1016.2 |
| 20260506113800 | 67 | 109 | 0.0 | 0.9 | 0.00 | 0.00 | 0.00 | 92 | 1015.9 |
| 20260506113258 | 67 | 108 | 0.0 | 0.9 | 0.00 | 0.00 | 0.00 | 92 | 1015.9 |
| 20260506112754 | 66 | 99 | 0.0 | 0.9 | 0.00 | 0.00 | 0.00 | 93 | 1015.9 |
| 20260506112252 | 66 | 100 | 0.0 | 0.9 | 0.00 | 0.00 | 0.00 | 93 | 1015.9 |
| 20260506111749 | 65 | 100 | 0.0 | 0.9 | 0.00 | 0.00 | 0.00 | 92 | 1015.5 |
| 20260506111247 | 65 | 100 | 0.0 | 0.9 | 0.00 | 0.00 | 0.00 | 92 | 1015.9 |
| 20260506110743 | 64 | 100 | 0.0 | 0.9 | 0.00 | 0.00 | 0.00 | 92 | 1015.5 |
| 20260506110241 | 64 | 100 | 0.0 | 0.0 | 0.00 | 0.00 | 0.00 | 92 | 1015.5 |
| 20260506105737 | 64 | 100 | 0.0 | 0.0 | 0.00 | 0.00 | 0.00 | 92 | 1015.5 |
| 20260506105234 | 64 | 114 | 0.0 | 0.0 | 0.00 | 0.00 | 0.00 | 92 | 1015.5 |
| 20260506104732 | 64 | 114 | 0.0 | 0.0 | 0.00 | 0.00 | 0.00 | 92 | 1015.5 |
| 20260506104230 | 64 | 114 | 0.0 | 0.0 | 0.00 | 0.00 | 0.00 | 92 | 1015.5 |
| 20260506103727 | 64 | 114 | 0.0 | 0.0 | 0.00 | 0.00 | 0.00 | 92 | 1015.5 |
| 20260506103224 | 64 | 114 | 0.0 | 0.0 | 0.00 | 0.00 | 0.00 | 91 | 1015.5 |
| 20260506102722 | 64 | 114 | 0.0 | 0.0 | 0.00 | 0.00 | 0.00 | 91 | 1015.5 |
| 20260506102220 | 64 | 114 | 0.0 | 0.0 | 0.00 | 0.00 | 0.00 | 91 | 1015.5 |
| 20260506101716 | 64 | 114 | 0.0 | 0.0 | 0.00 | 0.00 | 0.00 | 91 | 1015.5 |
| 20260506101212 | 64 | 114 | 0.0 | 0.0 | 0.00 | 0.00 | 0.00 | 91 | 1015.5 |
| 20260506100711 | 64 | 114 | 0.0 | 0.0 | 0.00 | 0.00 | 0.00 | 91 | 1015.5 |
| 20260506100208 | 65 | 114 | 0.0 | 0.0 | 0.00 | 0.00 | 0.00 | 91 | 1015.5 |
| 20260506095707 | 65 | 114 | 0.0 | 0.0 | 0.00 | 0.00 | 0.00 | 91 | 1015.5 |
| 20260506095203 | 65 | 114 | 0.0 | 0.0 | 0.00 | 0.00 | 0.00 | 91 | 1015.5 |
| 20260506094700 | 65 | 114 | 0.0 | 0.0 | 0.00 | 0.00 | 0.00 | 90 | 1015.5 |
| 20260506094158 | 65 | 114 | 0.0 | 0.0 | 0.00 | 0.00 | 0.00 | 90 | 1015.5 |
| 20260506093657 | 65 | 114 | 0.0 | 0.0 | 0.00 | 0.00 | 0.00 | 90 | 1015.5 |
| 20260506093153 | 65 | 114 | 0.0 | 0.0 | 0.00 | 0.00 | 0.00 | 90 | 1015.5 |
| 20260506092651 | 65 | 114 | 0.0 | 0.0 | 0.00 | 0.00 | 0.00 | 90 | 1015.5 |
| 20260506092148 | 65 | 114 | 0.0 | 0.0 | 0.00 | 0.00 | 0.00 | 90 | 1015.5 |
| 20260506091646 | 66 | 114 | 0.0 | 0.0 | 0.00 | 0.00 | 0.00 | 90 | 1015.2 |
| 20260506091143 | 66 | 114 | 0.0 | 0.0 | 0.00 | 0.00 | 0.00 | 90 | 1015.5 |
| 20260506090641 | 66 | 114 | 0.0 | 0.0 | 0.00 | 0.00 | 0.00 | 90 | 1015.5 |
| 20260506090137 | 66 | 114 | 0.0 | 0.0 | 0.00 | 0.00 | 0.00 | 89 | 1015.5 |
| 20260506085634 | 66 | 114 | 0.0 | 0.0 | 0.00 | 0.00 | 0.00 | 89 | 1015.2 |
| 20260506085131 | 66 | 114 | 0.0 | 0.9 | 0.00 | 0.00 | 0.00 | 89 | 1015.2 |
| 20260506084627 | 66 | 114 | 0.0 | 0.9 | 0.00 | 0.00 | 0.00 | 89 | 1015.2 |
| 20260506084124 | 66 | 113 | 0.0 | 0.9 | 0.00 | 0.00 | 0.00 | 89 | 1015.2 |
| 20260506083621 | 66 | 113 | 0.0 | 0.9 | 0.00 | 0.00 | 0.00 | 89 | 1015.2 |
| 20260506083119 | 66 | 112 | 0.0 | 1.7 | 0.00 | 0.00 | 0.00 | 89 | 1015.2 |
| 20260506082615 | 66 | 113 | 0.0 | 1.7 | 0.00 | 0.00 | 0.00 | 89 | 1015.2 |
| 20260506082111 | 67 | 118 | 0.0 | 1.7 | 0.00 | 0.00 | 0.00 | 88 | 1015.2 |
| 20260506081610 | 67 | 111 | 0.9 | 0.9 | 0.00 | 0.00 | 0.00 | 88 | 1015.2 |
| 20260506081107 | 67 | 109 | 0.0 | 0.9 | 0.00 | 0.00 | 0.00 | 88 | 1015.2 |
| 20260506080604 | 67 | 108 | 0.0 | 0.9 | 0.00 | 0.00 | 0.00 | 88 | 1015.2 |
| 20260506073044 | 67 | 112 | 0.0 | 1.7 | 0.00 | 0.00 | 0.00 | 87 | 1015.2 |
| 20260506072541 | 67 | 121 | 0.0 | 0.9 | 0.00 | 0.00 | 0.00 | 87 | 1015.2 |
| 20260506072039 | 67 | 117 | 0.0 | 1.7 | 0.00 | 0.00 | 0.00 | 87 | 1015.2 |
| 20260506071537 | 67 | 117 | 0.0 | 1.7 | 0.00 | 0.00 | 0.00 | 87 | 1015.5 |
| 20260506071034 | 67 | 109 | 0.0 | 2.6 | 0.00 | 0.00 | 0.00 | 87 | 1015.5 |
| 20260506070531 | 68 | 132 | 1.7 | 2.6 | 0.00 | 0.00 | 0.00 | 86 | 1015.2 |
| 20260506062509 | 68 | 129 | 1.7 | 2.6 | 0.00 | 0.00 | 0.00 | 84 | 1015.9 |
| 20260506062005 | 68 | 131 | 1.7 | 4.3 | 0.00 | 0.00 | 0.00 | 84 | 1015.9 |
| 20260506061501 | 68 | 130 | 1.7 | 4.3 | 0.00 | 0.00 | 0.00 | 84 | 1015.5 |
| 20260506060959 | 68 | 149 | 1.7 | 5.2 | 0.00 | 0.00 | 0.00 | 83 | 1015.9 |
| 20260506060457 | 68 | 137 | 1.7 | 5.2 | 0.00 | 0.00 | 0.00 | 83 | 1015.9 |
| 20260506050926 | 68 | 154 | 1.7 | 9.6 | 0.00 | 0.00 | 0.00 | 79 | 1016.2 |
| 20260506050424 | 69 | 218 | 5.2 | 13.0 | 0.00 | 0.00 | 0.00 | 79 | 1016.2 |
| 20260506044914 | 69 | 169 | 7.0 | 8.7 | 0.00 | 0.00 | 0.00 | 78 | 1015.9 |
| 20260506044412 | 69 | 181 | 5.2 | 9.6 | 0.00 | 0.00 | 0.00 | 78 | 1016.2 |
| 20260506043909 | 69 | 163 | 6.1 | 9.6 | 0.00 | 0.00 | 0.00 | 77 | 1016.2 |
| 20260506043406 | 69 | 176 | 5.2 | 9.6 | 0.00 | 0.00 | 0.00 | 76 | 1016.2 |
| 20260506042904 | 69 | 172 | 5.2 | 9.6 | 0.00 | 0.00 | 0.00 | 76 | 1016.2 |
| 20260506042403 | 70 | 173 | 6.1 | 11.3 | 0.00 | 0.00 | 0.00 | 75 | 1016.2 |
| 20260506041901 | 70 | 175 | 7.0 | 11.3 | 0.00 | 0.00 | 0.00 | 75 | 1016.2 |
| 20260506041358 | 70 | 168 | 5.2 | 13.9 | 0.00 | 0.00 | 0.00 | 75 | 1016.2 |
| 20260506040855 | 70 | 185 | 7.8 | 13.9 | 0.00 | 0.00 | 0.00 | 74 | 1016.6 |
| 20260506040352 | 70 | 168 | 7.0 | 13.0 | 0.00 | 0.00 | 0.00 | 74 | 1016.2 |
| 20260506035848 | 70 | 161 | 7.0 | 12.2 | 0.00 | 0.00 | 0.00 | 74 | 1016.6 |
| 20260506035346 | 70 | 170 | 7.8 | 12.2 | 0.00 | 0.00 | 0.00 | 74 | 1016.2 |
| 20260506034843 | 70 | 166 | 7.0 | 12.2 | 0.00 | 0.00 | 0.00 | 73 | 1016.6 |
| 20260506034340 | 70 | 181 | 7.8 | 11.3 | 0.00 | 0.00 | 0.00 | 73 | 1016.6 |
| 20260506033837 | 70 | 181 | 8.7 | 12.2 | 0.00 | 0.00 | 0.00 | 73 | 1016.6 |
| 20260506033334 | 69 | 181 | 7.8 | 12.2 | 0.00 | 0.00 | 0.00 | 73 | 1016.6 |
| 20260506032831 | 69 | 184 | 8.7 | 11.3 | 0.00 | 0.00 | 0.00 | 73 | 1016.6 |
| 20260506032328 | 69 | 182 | 6.1 | 11.3 | 0.00 | 0.00 | 0.00 | 72 | 1016.6 |
| 20260506031825 | 69 | 164 | 6.1 | 13.9 | 0.00 | 0.00 | 0.00 | 72 | 1016.6 |
| 20260506031322 | 69 | 188 | 7.0 | 13.9 | 0.00 | 0.00 | 0.00 | 72 | 1016.6 |
| 20260506030819 | 69 | 171 | 7.8 | 11.3 | 0.00 | 0.00 | 0.00 | 72 | 1016.2 |
| 20260506030317 | 69 | 147 | 9.6 | 9.6 | 0.00 | 0.00 | 0.00 | 72 | 1016.2 |
| 20260506025814 | 69 | 164 | 7.8 | 12.2 | 0.00 | 0.00 | 0.00 | 72 | 1016.6 |
| 20260506025311 | 69 | 187 | 7.8 | 12.2 | 0.00 | 0.00 | 0.00 | 72 | 1016.6 |
| 20260506024808 | 69 | 169 | 7.8 | 11.3 | 0.00 | 0.00 | 0.00 | 72 | 1016.6 |
| 20260506024304 | 69 | 164 | 6.1 | 9.6 | 0.00 | 0.00 | 0.00 | 73 | 1016.2 |
| 20260506023800 | 69 | 150 | 7.8 | 9.6 | 0.00 | 0.00 | 0.00 | 73 | 1016.6 |
| 20260506023258 | 69 | 154 | 7.0 | 8.7 | 0.00 | 0.00 | 0.00 | 73 | 1016.2 |
| 20260506022754 | 69 | 150 | 3.5 | 8.7 | 0.00 | 0.00 | 0.00 | 73 | 1016.2 |
| 20260506022252 | 69 | 170 | 5.2 | 7.8 | 0.00 | 0.00 | 0.00 | 73 | 1016.6 |
| 20260506021750 | 68 | 156 | 4.3 | 8.7 | 0.00 | 0.00 | 0.00 | 73 | 1016.2 |
| 20260506021247 | 68 | 170 | 7.0 | 9.6 | 0.00 | 0.00 | 0.00 | 72 | 1016.2 |
| 20260506020743 | 68 | 135 | 4.3 | 9.6 | 0.00 | 0.00 | 0.00 | 72 | 1016.2 |
| 20260506020241 | 69 | 160 | 3.5 | 8.7 | 0.00 | 0.00 | 0.00 | 72 | 1016.2 |
| 20260506015738 | 69 | 159 | 4.3 | 8.7 | 0.00 | 0.00 | 0.00 | 72 | 1015.9 |
| 20260506015236 | 68 | 157 | 5.2 | 8.7 | 0.00 | 0.00 | 0.00 | 72 | 1015.9 |
| 20260506014732 | 68 | 139 | 5.2 | 8.7 | 0.00 | 0.00 | 0.00 | 72 | 1015.9 |
| 20260506014229 | 68 | 132 | 4.3 | 8.7 | 0.00 | 0.00 | 0.00 | 72 | 1015.9 |
| 20260506013726 | 68 | 167 | 4.3 | 9.6 | 0.00 | 0.00 | 0.00 | 72 | 1015.9 |
| 20260506013223 | 68 | 162 | 5.2 | 9.6 | 0.00 | 0.00 | 0.00 | 72 | 1016.2 |
| 20260506012719 | 68 | 163 | 3.5 | 8.7 | 0.00 | 0.00 | 0.00 | 72 | 1016.2 |
| 20260506012217 | 68 | 159 | 5.2 | 8.7 | 0.00 | 0.00 | 0.00 | 72 | 1016.2 |
| 20260506011714 | 68 | 171 | 4.3 | 7.8 | 0.00 | 0.00 | 0.00 | 72 | 1016.2 |
| 20260506011210 | 68 | 160 | 3.5 | 7.8 | 0.00 | 0.00 | 0.00 | 71 | 1016.2 |
| 20260506010709 | 68 | 165 | 4.3 | 7.8 | 0.00 | 0.00 | 0.00 | 71 | 1015.9 |
| 20260506010206 | 68 | 161 | 6.1 | 7.8 | 0.00 | 0.00 | 0.00 | 71 | 1015.9 |
| 20260506005702 | 68 | 147 | 6.1 | 6.1 | 0.00 | 0.00 | 0.00 | 71 | 1016.2 |
| 20260506005159 | 68 | 156 | 4.3 | 6.1 | 0.00 | 0.00 | 0.00 | 71 | 1015.9 |
| 20260506004655 | 68 | 150 | 3.5 | 7.0 | 0.00 | 0.00 | 0.00 | 70 | 1015.5 |
| 20260506004153 | 69 | 145 | 3.5 | 7.0 | 0.00 | 0.00 | 0.00 | 70 | 1015.9 |
| 20260506003649 | 69 | 132 | 5.2 | 7.8 | 0.00 | 0.00 | 0.00 | 69 | 1015.5 |
| 20260506003145 | 69 | 153 | 3.5 | 11.3 | 0.00 | 0.00 | 0.00 | 69 | 1015.9 |
| 20260506002641 | 69 | 151 | 5.2 | 11.3 | 0.00 | 0.00 | 0.00 | 69 | 1015.5 |
| 20260506002138 | 69 | 129 | 3.5 | 11.3 | 0.00 | 0.00 | 0.00 | 68 | 1015.5 |
| 20260506001633 | 69 | 107 | 6.1 | 12.2 | 0.00 | 0.00 | 0.00 | 68 | 1015.5 |
| 20260506001131 | 69 | 163 | 6.1 | 12.2 | 0.00 | 0.00 | 0.00 | 68 | 1015.5 |
| 20260506000628 | 69 | 145 | 5.2 | 9.6 | 0.00 | 0.00 | 0.00 | 68 | 1015.5 |
| 20260506000125 | 70 | 154 | 5.2 | 9.6 | 0.00 | 0.00 | 0.00 | 67 | 1015.5 |
| 20260505235623 | 70 | 163 | 5.2 | 11.3 | 0.00 | 0.00 | 0.00 | 67 | 1015.5 |
| 20260505235120 | 70 | 167 | 5.2 | 12.2 | 0.00 | 0.00 | 0.00 | 67 | 1015.5 |
| 20260505234617 | 70 | 154 | 6.1 | 13.9 | 0.00 | 0.00 | 0.00 | 66 | 1015.9 |
| 20260505234114 | 71 | 169 | 10.4 | 13.9 | 0.00 | 0.00 | 0.00 | 66 | 1015.5 |
| 20260505233611 | 71 | 206 | 7.8 | 13.0 | 0.00 | 0.00 | 0.00 | 65 | 1015.5 |
| 20260505233109 | 71 | 148 | 7.0 | 13.0 | 0.00 | 0.00 | 0.00 | 65 | 1015.5 |
| 20260505232606 | 71 | 164 | 10.4 | 13.0 | 0.00 | 0.00 | 0.00 | 64 | 1015.5 |
| 20260505232104 | 71 | 157 | 6.1 | 13.9 | 0.00 | 0.00 | 0.00 | 63 | 1015.5 |
| 20260505231600 | 71 | 161 | 8.7 | 13.9 | 0.00 | 0.00 | 0.00 | 62 | 1015.5 |
| 20260505231059 | 72 | 173 | 7.0 | 13.0 | 0.00 | 0.00 | 0.00 | 62 | 1015.9 |
| 20260505230556 | 72 | 182 | 4.3 | 14.8 | 0.00 | 0.00 | 0.00 | 61 | 1015.9 |
| 20260505230052 | 72 | 170 | 10.4 | 17.4 | 0.00 | 0.00 | 0.00 | 59 | 1015.9 |
| 20260505225549 | 72 | 180 | 7.8 | 17.4 | 0.00 | 0.00 | 0.00 | 58 | 1015.9 |
| 20260505225045 | 72 | 187 | 9.6 | 13.0 | 0.00 | 0.00 | 0.00 | 59 | 1015.5 |
| 20260505224542 | 73 | 147 | 8.7 | 13.0 | 0.00 | 0.00 | 0.00 | 58 | 1015.5 |
| 20260505224040 | 73 | 141 | 7.0 | 14.8 | 0.00 | 0.00 | 0.00 | 57 | 1015.5 |
| 20260505223537 | 74 | 179 | 6.1 | 14.8 | 0.00 | 0.00 | 0.00 | 55 | 1015.5 |
| 20260505223033 | 75 | 183 | 11.3 | 14.8 | 0.00 | 0.00 | 0.00 | 55 | 1015.9 |
| 20260505222529 | 75 | 133 | 7.0 | 15.6 | 0.00 | 0.00 | 0.00 | 56 | 1015.5 |
| 20260505222025 | 74 | 152 | 10.4 | 15.6 | 0.00 | 0.00 | 0.00 | 57 | 1015.5 |
| 20260505221523 | 74 | 177 | 10.4 | 15.6 | 0.00 | 0.00 | 0.00 | 58 | 1015.9 |
| 20260505221019 | 73 | 156 | 7.8 | 19.1 | 0.00 | 0.00 | 0.00 | 58 | 1015.9 |
| 20260505220517 | 74 | 152 | 9.6 | 19.1 | 0.00 | 0.00 | 0.00 | 59 | 1015.5 |
| 20260505220014 | 74 | 196 | 10.4 | 18.2 | 0.00 | 0.00 | 0.00 | 61 | 1015.9 |
| 20260505215512 | 73 | 166 | 13.0 | 17.4 | 0.00 | 0.00 | 0.00 | 60 | 1015.5 |
| 20260505215010 | 74 | 172 | 10.4 | 17.4 | 0.00 | 0.00 | 0.00 | 60 | 1015.9 |
| 20260505214508 | 74 | 174 | 8.7 | 17.4 | 0.00 | 0.00 | 0.00 | 60 | 1015.9 |
| 20260505214004 | 74 | 169 | 10.4 | 19.1 | 0.00 | 0.00 | 0.00 | 59 | 1015.5 |
| 20260505213502 | 74 | 154 | 7.8 | 19.1 | 0.00 | 0.00 | 0.00 | 59 | 1015.5 |
| 20260505212958 | 75 | 186 | 7.8 | 15.6 | 0.00 | 0.00 | 0.00 | 59 | 1015.9 |
| 20260505212455 | 74 | 160 | 9.6 | 15.6 | 0.00 | 0.00 | 0.00 | 59 | 1015.9 |
| 20260505211951 | 74 | 136 | 7.0 | 14.8 | 0.00 | 0.00 | 0.00 | 59 | 1015.9 |
| 20260505211449 | 75 | 125 | 8.7 | 15.6 | 0.00 | 0.00 | 0.00 | 60 | 1015.9 |
| 20260505210945 | 74 | 189 | 9.6 | 15.6 | 0.00 | 0.00 | 0.00 | 60 | 1015.9 |
| 20260505210442 | 74 | 171 | 11.3 | 18.2 | 0.00 | 0.00 | 0.00 | 60 | 1015.9 |
| 20260505205939 | 74 | 130 | 7.8 | 18.2 | 0.00 | 0.00 | 0.00 | 60 | 1015.9 |
| 20260505205438 | 74 | 196 | 8.7 | 17.4 | 0.00 | 0.00 | 0.00 | 60 | 1015.9 |